#timestamp,LO_Frequency,Hit,StdDev 
1621184415.8,286047000.7,N
1621184435.6,286046999.4,N
1621184455.4,286046998.6,N
1621184475.3,286046998.2,N
1621184495.1,286047001.2,N
1621184515.9,286047000.6,N
1621184535.7,286047000.5,N
1621184555.5,286047000.8,N
1621184575.4,286047000.9,N
1621184595.2,286047001.0,N
1621184615.1,286047000.3,N
1621184616.0,286047000.3,N
1621184635.8,286047000.0,N
1621184655.6,286047000.6,N
1621184675.5,286047000.6,N
1621184695.3,286047000.0,N
1621184715.1,286047000.2,N
1621184735.9,286047002.5,N
1621184755.7,286046999.8,N
1621184775.6,286047002.1,N
1621184795.4,286047003.5,N
1621184815.2,286047003.9,N
1621184835.1,286047003.2,N
1621184836.0,286047003.2,N
1621184855.8,286047005.3,Y
1621184875.6,286047005.2,P
1621184895.5,286047003.2,N
1621184915.3,286047003.4,N
1621184935.2,286047003.7,N
1621184955.9,286047003.7,N
1621184975.7,286047005.0,Y
1621184995.6,286047004.8,P
1621185015.4,286047004.6,P
1621185035.3,286047002.9,P
1621185055.1,286047003.6,Y
1621185056.0,286047003.6,P
1621185075.8,286047000.5,P
1621185095.7,286047001.0,N
1621185115.5,286047000.9,N
1621185135.3,286047000.8,N
1621185155.2,286046998.4,N
1621185175.0,286046998.8,N
1621185175.9,286046998.8,N
1621185195.8,286046998.5,N
1621185215.6,286047000.9,N
1621185235.4,286046998.3,N
1621185255.3,286047000.6,N
1621185275.1,286047000.7,N
1621185295.8,286047000.9,N
1621185315.7,286047000.7,N
1621185335.5,286047001.0,N
1621185355.4,286047000.4,N
1621185375.2,286047000.6,N
1621185395.0,286047000.6,N
1621185395.9,286047000.6,N
1621185415.8,286047000.5,N
1621185435.6,286047000.5,N
1621185455.4,286047000.5,N
1621185475.3,286047000.4,N
1621185495.1,286047000.4,N
1621185515.9,286047000.5,N
1621185535.7,286047000.5,N
1621185555.5,286047000.4,N
1621185575.4,286047001.2,N
1621185595.2,286047000.5,N
1621185615.0,286047000.3,N
1621185616.0,286047000.3,N
1621185635.8,286047000.4,N
1621185655.6,286047001.0,N
1621185675.5,286047000.0,N
1621185695.3,286047001.9,N
1621185715.1,286047002.6,Y
1621185735.9,286047002.7,P
1621185755.7,286046999.9,N
1621185775.6,286047002.7,N
1621185795.4,286047002.8,N
1621185815.2,286047002.3,N
1621185835.1,286047002.8,N
1621185836.0,286047002.8,N
1621185855.8,286047002.5,N
1621185875.7,286047002.1,N
1621185895.5,286047002.1,N
1621185915.3,286047002.1,N
1621185935.2,286047002.4,N
1621185955.0,286047002.5,N
1621185955.9,286047002.5,N
1621185975.7,286047002.6,Y
1621185995.6,286047000.7,P
1621186015.4,286046998.5,N
1621186035.3,286046998.1,N
1621186055.1,286047000.6,N
1621186056.0,286047000.6,N
1621186075.8,286047000.7,N
1621186095.7,286047000.4,N
1621186115.5,286047000.5,N
1621186135.4,286047000.6,N
1621186155.2,286047000.8,N
1621186175.0,286047000.7,N
1621186175.9,286047000.7,N
1621186195.8,286047000.2,N
1621186215.6,286047000.4,N
1621186235.4,286047000.6,N
1621186255.3,286047002.4,N
1621186275.1,286047002.2,N
1621186295.9,286046999.8,N
1621186315.7,286047000.3,N
1621186335.5,286047000.6,N
1621186355.4,286047002.4,N
1621186375.2,286047000.4,N
1621186395.0,286046999.9,N
1621186396.0,286046999.9,N
1621186415.8,286047002.5,N
1621186435.6,286047002.7,N
1621186455.5,286047002.2,N
1621186475.3,286047002.5,N
1621186495.1,286047002.7,N
1621186515.9,286047001.6,N
1621186535.7,286047001.8,N
1621186555.6,286047004.4,Y
1621186575.4,286047002.4,P
1621186595.2,286047002.3,P
1621186615.1,286047002.1,P
1621186616.0,286047002.1,Y
1621186635.8,286047001.1,P
1621186655.7,286047001.1,N
1621186675.5,286047000.9,N
1621186695.3,286047000.3,N
1621186715.2,286047000.0,N
1621186735.9,286047000.5,N
1621186755.7,286047000.3,N
1621186775.6,286047000.6,N
1621186795.4,286047001.0,N
1621186815.3,286047002.7,Y
1621186835.1,286047000.8,P
1621186836.0,286047000.8,P
1621186855.8,286046998.5,P
1621186875.7,286046998.3,N
1621186895.5,286047000.4,N
1621186915.3,286047000.7,N
1621186965.2,286047000.4,E
1621186975.1,286046999.9,N
1621186995.9,286046999.8,P
1621187015.7,286047002.0,P
1621187035.6,286047000.2,N
1621187055.4,286047002.6,N
1621187075.2,286047001.5,N
1621187095.1,286047004.4,Y
1621187096.0,286047004.4,P
1621187115.8,286047001.9,N
1621187135.6,286047002.1,N
1621187155.5,286047002.1,N
1621187175.3,286047001.9,N
1621187195.2,286047001.9,N
1621187215.9,286047002.5,N
1621187235.7,286047004.4,Y
1621187255.6,286047002.7,P
1621187275.4,286047000.0,N
1621187295.3,286047002.3,N
1621187315.1,286047002.5,N
1621187316.0,286047002.5,N
1621187335.8,286047001.9,N
1621187355.7,286047001.6,N
1621187375.5,286047001.3,N
1621187395.4,286047001.3,N
1621187415.2,286047004.3,Y
1621187435.0,286047002.3,P
1621187435.9,286047002.3,P
1621187455.8,286047002.3,P
1621187475.6,286047002.4,Y
1621187495.5,286046998.6,P
1621187515.3,286046998.6,N
1621187535.1,286047000.8,N
1621187555.9,286046998.5,N
1621187575.7,286046998.1,N
1621187595.5,286047000.0,N
1621187615.4,286047000.4,N
1621187635.2,286047000.0,N
1621187655.1,286047000.4,N
1621187656.0,286047000.4,N
1621187675.8,286047000.2,N
1621187695.6,286047002.8,N
1621187715.5,286047000.6,N
1621187735.3,286046999.7,N
1621187755.2,286047002.8,N
1621187775.9,286047002.5,N
1621187795.7,286047000.1,N
1621187815.6,286047001.3,N
1621187835.4,286047003.9,N
1621187855.2,286047001.3,N
1621187875.1,286047003.9,N
1621187876.0,286047003.9,N
1621187895.8,286047003.6,N
1621187915.7,286047003.7,N
1621187935.5,286047004.1,N
1621187955.3,286047005.6,N
1621187975.2,286047005.4,N
1621187995.0,286047005.4,N
1621187995.9,286047005.4,N
